User: anonymous   Login
Location: Arleux
(50.3632°N, 2.8721°E)
Time: 13:54:43
(UTC+00:00)
Language:

Okean 2 Rocket - Orbit

View from above orbital plane
View from above orbital plane
View from above satellite
View from above satellite

Ground track
Ground track

The orbit data is extracted from the following two-line orbital elements,

1 20511U 90018B   20052.72006921 +.00000053 +00000-0 +38198-5 0  9995
2 20511 082.5233 121.8869 0018558 137.2503 013.7304 14.80032359595841
Epoch (UTC): 21 February 2020 17:16:53
Eccentricity: 0.0018558
inclination: 82.5233°
perigee height: 616 km
apogee height: 642 km
right ascension of ascending node: 121.8869°
argument of perigee: 137.2503°
revolutions per day: 14.80032359
mean anomaly at epoch: 13.7304°
orbit number at epoch: 59584

The dashed part of the orbit path shows where the satellite is in the earth's shadow,  

DLR